Time,TemperatureF,DewpointF,PressureIn,WindDirection,WindDirectionDegrees,WindSpeedMPH,WindSpeedGustMPH,Humidity,HourlyPrecipIn,Conditions,Clouds,dailyrainin,SoftwareType,DateUTC
2013-01-14 00:02:00,2.0,-5.0,-100.00,SE,130,2.0,4.0,71,-99.99,,,-99.99,,2013-01-14 07:02:00,
2013-01-14 00:12:00,1.0,-6.0,-100.00,SE,130,2.0,4.0,71,-99.99,,,-99.99,,2013-01-14 07:12:00,
2013-01-14 00:22:00,1.0,-6.0,-100.00,ESE,115,1.0,4.0,72,-99.99,,,-99.99,,2013-01-14 07:22:00,
2013-01-14 00:32:00,0.0,-6.0,-100.00,ESE,115,0.0,1.0,72,-99.99,,,-99.99,,2013-01-14 07:32:00,
2013-01-14 00:42:00,0.0,-7.0,-100.00,ESE,115,0.0,0.0,72,-99.99,,,-99.99,,2013-01-14 07:42:00,
2013-01-14 00:52:00,1.0,-6.0,-100.00,SE,130,2.0,3.0,73,-99.99,,,-99.99,,2013-01-14 07:52:00,
2013-01-14 01:02:00,0.0,-6.0,-100.00,NE,50,2.0,3.0,74,-99.99,,,-99.99,,2013-01-14 08:02:00,
2013-01-14 01:11:00,0.0,-6.0,-100.00,NE,50,1.0,3.0,74,-99.99,,,-99.99,,2013-01-14 08:11:00,
2013-01-14 01:22:00,0.0,-6.0,-100.00,East,95,2.0,3.0,75,-99.99,,,-99.99,,2013-01-14 08:22:00,
2013-01-14 01:32:00,0.0,-6.0,-100.00,SE,125,2.0,3.0,75,-99.99,,,-99.99,,2013-01-14 08:32:00,
2013-01-14 01:42:00,-1.0,-7.0,-100.00,SE,145,0.0,3.0,76,-99.99,,,-99.99,,2013-01-14 08:42:00,
2013-01-14 01:52:00,-1.0,-6.0,-100.00,SE,145,0.0,0.0,76,-99.99,,,-99.99,,2013-01-14 08:52:00,
2013-01-14 02:02:00,0.0,-6.0,-100.00,ENE,75,1.0,2.0,76,-99.99,,,-99.99,,2013-01-14 09:02:00,
2013-01-14 02:11:00,-1.0,-7.0,-100.00,NE,55,0.0,2.0,76,-99.99,,,-99.99,,2013-01-14 09:11:00,
2013-01-14 02:22:00,-1.0,-7.0,-100.00,NE,55,0.0,0.0,76,-99.99,,,-99.99,,2013-01-14 09:22:00,
2013-01-14 02:33:00,-2.0,-7.0,-100.00,East,85,0.0,0.0,76,-99.99,,,-99.99,,2013-01-14 09:33:00,
2013-01-14 02:42:00,-2.0,-7.0,-100.00,East,85,0.0,0.0,77,-99.99,,,-99.99,,2013-01-14 09:42:00,
2013-01-14 02:52:00,-3.0,-8.0,-100.00,ENE,65,2.0,4.0,77,-99.99,,,-99.99,,2013-01-14 09:52:00,
2013-01-14 03:02:00,-4.0,-9.0,-100.00,ESE,105,2.0,3.0,77,-99.99,,,-99.99,,2013-01-14 10:02:00,
2013-01-14 03:11:00,-4.0,-9.0,-100.00,ESE,110,0.0,1.0,78,-99.99,,,-99.99,,2013-01-14 10:11:00,
2013-01-14 03:22:00,-5.0,-10.0,-100.00,ESE,105,0.0,1.0,78,-99.99,,,-99.99,,2013-01-14 10:22:00,
2013-01-14 03:32:00,-5.0,-10.0,-100.00,East,85,0.0,0.0,78,-99.99,,,-99.99,,2013-01-14 10:32:00,
2013-01-14 03:42:00,-5.0,-10.0,-100.00,East,85,0.0,0.0,78,-99.99,,,-99.99,,2013-01-14 10:42:00,
2013-01-14 03:52:00,-5.0,-10.0,-100.00,East,95,0.0,2.0,78,-99.99,,,-99.99,,2013-01-14 10:52:00,
2013-01-14 04:01:00,-6.0,-11.0,-100.00,ESE,110,0.0,0.0,78,-99.99,,,-99.99,,2013-01-14 11:01:00,
2013-01-14 04:11:00,-6.0,-11.0,-100.00,SW,230,0.0,1.0,79,-99.99,,,-99.99,,2013-01-14 11:11:00,
2013-01-14 04:22:00,-6.0,-11.0,-100.00,ESE,110,2.0,2.0,79,-99.99,,,-99.99,,2013-01-14 11:22:00,
2013-01-14 04:32:00,-6.0,-11.0,-100.00,ESE,110,0.0,2.0,79,-99.99,,,-99.99,,2013-01-14 11:32:00,
2013-01-14 04:42:00,-7.0,-12.0,-100.00,ESE,120,0.0,2.0,79,-99.99,,,-99.99,,2013-01-14 11:42:00,
2013-01-14 04:53:00,-7.0,-12.0,-100.00,ESE,120,0.0,0.0,79,-99.99,,,-99.99,,2013-01-14 11:53:00,
2013-01-14 05:02:00,-8.0,-12.0,-100.00,ESE,120,0.0,0.0,79,-99.99,,,-99.99,,2013-01-14 12:02:00,
2013-01-14 05:11:00,-7.0,-12.0,-100.00,ESE,115,1.0,2.0,80,-99.99,,,-99.99,,2013-01-14 12:11:00,
2013-01-14 05:22:00,-7.0,-12.0,-100.00,ESE,110,0.0,2.0,80,-99.99,,,-99.99,,2013-01-14 12:22:00,
2013-01-14 05:33:00,-8.0,-12.0,-100.00,SW,220,0.0,0.0,80,-99.99,,,-99.99,,2013-01-14 12:33:00,
2013-01-14 05:42:00,-9.0,-13.0,-100.00,SSW,195,0.0,1.0,79,-99.99,,,-99.99,,2013-01-14 12:42:00,
2013-01-14 05:52:00,-9.0,-13.0,-100.00,SSW,195,0.0,0.0,80,-99.99,,,-99.99,,2013-01-14 12:52:00,
2013-01-14 06:02:00,-9.0,-13.0,-100.00,SSW,195,0.0,0.0,80,-99.99,,,-99.99,,2013-01-14 13:02:00,
2013-01-14 06:12:00,-9.0,-13.0,-100.00,SSW,195,0.0,0.0,80,-99.99,,,-99.99,,2013-01-14 13:12:00,
2013-01-14 06:22:00,-9.0,-14.0,-100.00,SSW,195,1.0,4.0,80,-99.99,,,-99.99,,2013-01-14 13:22:00,
2013-01-14 06:33:00,-10.0,-14.0,-100.00,SSE,150,1.0,3.0,80,-99.99,,,-99.99,,2013-01-14 13:33:00,
2013-01-14 06:43:00,-9.0,-13.0,-100.00,SSE,155,0.0,1.0,80,-99.99,,,-99.99,,2013-01-14 13:43:00,
2013-01-14 06:52:00,-9.0,-13.0,-100.00,NW,315,0.0,1.0,80,-99.99,,,-99.99,,2013-01-14 13:52:00,
2013-01-14 07:02:00,-9.0,-13.0,-100.00,SW,215,1.0,2.0,80,-99.99,,,-99.99,,2013-01-14 14:02:00,
2013-01-14 07:12:00,-10.0,-14.0,-100.00,South,185,0.0,1.0,80,-99.99,,,-99.99,,2013-01-14 14:12:00,
2013-01-14 07:22:00,-9.0,-13.0,-100.00,East,90,0.0,0.0,80,-99.99,,,-99.99,,2013-01-14 14:22:00,
2013-01-14 07:32:00,-9.0,-13.0,-100.00,SW,230,0.0,2.0,80,-99.99,,,-99.99,,2013-01-14 14:32:00,
2013-01-14 07:42:00,-10.0,-14.0,-100.00,SW,230,2.0,2.0,80,-99.99,,,-99.99,,2013-01-14 14:42:00,
2013-01-14 07:52:00,-11.0,-15.0,-100.00,SW,235,2.0,3.0,80,-99.99,,,-99.99,,2013-01-14 14:52:00,
2013-01-14 08:02:00,-9.0,-14.0,-100.00,NW,305,2.0,4.0,80,-99.99,,,-99.99,,2013-01-14 15:02:00,
2013-01-14 08:12:00,-9.0,-13.0,-100.00,WNW,300,1.0,1.0,80,-99.99,,,-99.99,,2013-01-14 15:12:00,
2013-01-14 08:22:00,-9.0,-13.0,-100.00,NNW,340,2.0,2.0,80,-99.99,,,-99.99,,2013-01-14 15:22:00,
2013-01-14 08:33:00,-9.0,-13.0,-100.00,NNW,345,0.0,3.0,80,-99.99,,,-99.99,,2013-01-14 15:33:00,
2013-01-14 08:42:00,-9.0,-13.0,-100.00,NNW,340,0.0,0.0,80,-99.99,,,-99.99,,2013-01-14 15:42:00,
2013-01-14 08:52:00,-8.0,-13.0,-100.00,North,355,1.0,4.0,80,-99.99,,,-99.99,,2013-01-14 15:52:00,
2013-01-14 09:02:00,-6.0,-10.0,-100.00,SSW,210,2.0,2.0,81,-99.99,,,-99.99,,2013-01-14 16:02:00,
2013-01-14 09:12:00,-6.0,-10.0,-100.00,SW,220,1.0,2.0,81,-99.99,,,-99.99,,2013-01-14 16:12:00,
2013-01-14 09:22:00,-6.0,-10.0,-100.00,SSW,200,2.0,3.0,81,-99.99,,,-99.99,,2013-01-14 16:22:00,
2013-01-14 09:33:00,-3.0,-7.0,-100.00,South,175,1.0,4.0,81,-99.99,,,-99.99,,2013-01-14 16:33:00,
2013-01-14 09:42:00,-1.0,-6.0,-100.00,South,170,1.0,2.0,81,-99.99,,,-99.99,,2013-01-14 16:42:00,
2013-01-14 09:52:00,0.0,-4.0,-100.00,SSE,155,0.0,2.0,81,-99.99,,,-99.99,,2013-01-14 16:52:00,
2013-01-14 10:02:00,0.0,-4.0,-100.00,SE,135,1.0,2.0,81,-99.99,,,-99.99,,2013-01-14 17:02:00,
2013-01-14 10:12:00,2.0,-2.0,-100.00,SE,125,0.0,1.0,81,-99.99,,,-99.99,,2013-01-14 17:12:00,
2013-01-14 10:22:00,4.0,0.0,-100.00,South,180,3.0,4.0,82,-99.99,,,-99.99,,2013-01-14 17:22:00,
2013-01-14 10:33:00,4.0,0.0,-100.00,South,180,3.0,4.0,82,-99.99,,,-99.99,,2013-01-14 17:33:00,
2013-01-14 10:53:00,4.0,0.0,-100.00,SSE,165,1.0,4.0,82,-99.99,,,-99.99,,2013-01-14 17:53:00,
2013-01-14 11:02:00,4.0,0.0,-100.00,SSE,165,1.0,4.0,82,-99.99,,,-99.99,,2013-01-14 18:02:00,
2013-01-14 11:23:00,8.0,2.0,-100.00,SSW,195,2.0,2.0,79,-99.99,,,-99.99,,2013-01-14 18:23:00,
2013-01-14 11:33:00,8.0,2.0,-100.00,SSW,200,2.0,4.0,76,-99.99,,,-99.99,,2013-01-14 18:33:00,
2013-01-14 11:43:00,8.0,2.0,-100.00,SSW,200,2.0,4.0,76,-99.99,,,-99.99,,2013-01-14 18:43:00,
2013-01-14 11:53:00,8.0,2.0,-100.00,SSW,200,2.0,4.0,76,-99.99,,,-99.99,,2013-01-14 18:53:00,
2013-01-14 12:02:00,9.0,1.0,-100.00,West,270,2.0,4.0,67,-99.99,,,-99.99,,2013-01-14 19:02:00,
2013-01-14 12:12:00,11.0,1.0,-100.00,SW,215,2.0,4.0,64,-99.99,,,-99.99,,2013-01-14 19:12:00,
2013-01-14 12:22:00,12.0,1.0,-100.00,South,190,2.0,4.0,61,-99.99,,,-99.99,,2013-01-14 19:22:00,
2013-01-14 12:32:00,12.0,1.0,-100.00,South,185,2.0,4.0,59,-99.99,,,-99.99,,2013-01-14 19:32:00,
2013-01-14 12:42:00,13.0,0.0,-100.00,SSW,210,1.0,4.0,56,-99.99,,,-99.99,,2013-01-14 19:42:00,
2013-01-14 12:52:00,13.0,0.0,-100.00,SSW,205,1.0,3.0,54,-99.99,,,-99.99,,2013-01-14 19:52:00,
2013-01-14 13:03:00,13.0,0.0,-100.00,South,185,2.0,4.0,53,-99.99,,,-99.99,,2013-01-14 20:03:00,
2013-01-14 13:12:00,13.0,-1.0,-100.00,South,190,1.0,3.0,51,-99.99,,,-99.99,,2013-01-14 20:12:00,
2013-01-14 13:22:00,15.0,0.0,-100.00,SW,215,2.0,3.0,50,-99.99,,,-99.99,,2013-01-14 20:22:00,
2013-01-14 13:33:00,15.0,-1.0,-100.00,WSW,245,2.0,4.0,49,-99.99,,,-99.99,,2013-01-14 20:33:00,
2013-01-14 13:42:00,15.0,-1.0,-100.00,West,275,1.0,4.0,47,-99.99,,,-99.99,,2013-01-14 20:42:00,
2013-01-14 13:52:00,17.0,0.0,-100.00,South,185,1.0,4.0,46,-99.99,,,-99.99,,2013-01-14 20:52:00,
2013-01-14 14:02:00,17.0,-1.0,-100.00,SW,215,2.0,4.0,45,-99.99,,,-99.99,,2013-01-14 21:02:00,
2013-01-14 14:12:00,18.0,-1.0,-100.00,South,170,1.0,2.0,43,-99.99,,,-99.99,,2013-01-14 21:12:00,
2013-01-14 14:22:00,18.0,-1.0,-100.00,WNW,295,2.0,4.0,41,-99.99,,,-99.99,,2013-01-14 21:22:00,
2013-01-14 14:32:00,18.0,-2.0,-100.00,WSW,250,2.0,4.0,41,-99.99,,,-99.99,,2013-01-14 21:32:00,
2013-01-14 14:42:00,19.0,-1.0,-100.00,WSW,245,2.0,4.0,40,-99.99,,,-99.99,,2013-01-14 21:42:00,
2013-01-14 14:53:00,19.0,-2.0,-100.00,SW,215,2.0,4.0,39,-99.99,,,-99.99,,2013-01-14 21:53:00,
2013-01-14 15:02:00,19.0,-2.0,-100.00,SSW,210,2.0,4.0,38,-99.99,,,-99.99,,2013-01-14 22:02:00,
2013-01-14 15:12:00,19.0,-2.0,-100.00,South,185,4.0,4.0,37,-99.99,,,-99.99,,2013-01-14 22:12:00,
2013-01-14 15:22:00,20.0,-2.0,-100.00,South,190,1.0,4.0,36,-99.99,,,-99.99,,2013-01-14 22:22:00,
2013-01-14 15:32:00,20.0,-3.0,-100.00,WSW,240,2.0,4.0,35,-99.99,,,-99.99,,2013-01-14 22:32:00,
2013-01-14 15:42:00,19.0,-4.0,-100.00,SSW,195,2.0,6.0,35,-99.99,,,-99.99,,2013-01-14 22:42:00,
2013-01-14 15:52:00,20.0,-3.0,-100.00,SSW,195,1.0,4.0,35,-99.99,,,-99.99,,2013-01-14 22:52:00,
2013-01-14 16:02:00,20.0,-3.0,-100.00,South,190,2.0,4.0,35,-99.99,,,-99.99,,2013-01-14 23:02:00,
2013-01-14 16:12:00,20.0,-4.0,-100.00,South,180,2.0,4.0,34,-99.99,,,-99.99,,2013-01-14 23:12:00,
2013-01-14 16:22:00,20.0,-4.0,-100.00,South,185,1.0,3.0,34,-99.99,,,-99.99,,2013-01-14 23:22:00,
2013-01-14 16:32:00,19.0,-4.0,-100.00,SSE,165,1.0,3.0,34,-99.99,,,-99.99,,2013-01-14 23:32:00,
2013-01-14 16:42:00,18.0,-5.0,-100.00,SE,125,1.0,5.0,34,-99.99,,,-99.99,,2013-01-14 23:42:00,
2013-01-14 16:52:00,18.0,-5.0,-100.00,SSW,205,1.0,5.0,35,-99.99,,,-99.99,,2013-01-14 23:52:00,
2013-01-14 17:02:00,16.0,-6.0,-100.00,WNW,290,4.0,7.0,35,-99.99,,,-99.99,,2013-01-15 00:02:00,
2013-01-14 17:12:00,15.0,-7.0,-100.00,WNW,295,4.0,11.0,36,-99.99,,,-99.99,,2013-01-15 00:12:00,
2013-01-14 17:22:00,14.0,-7.0,-100.00,WNW,295,7.0,11.0,37,-99.99,,,-99.99,,2013-01-15 00:22:00,
2013-01-14 17:32:00,12.0,-8.0,-100.00,NW,315,6.0,11.0,39,-99.99,,,-99.99,,2013-01-15 00:32:00,
2013-01-14 17:42:00,12.0,-8.0,-100.00,NW,305,7.0,10.0,40,-99.99,,,-99.99,,2013-01-15 00:42:00,
2013-01-14 17:52:00,12.0,-7.0,-100.00,NW,315,7.0,12.0,41,-99.99,,,-99.99,,2013-01-15 00:52:00,
2013-01-14 18:02:00,11.0,-7.0,-100.00,WNW,295,7.0,12.0,41,-99.99,,,-99.99,,2013-01-15 01:02:00,
2013-01-14 18:12:00,8.0,-11.0,-100.00,WSW,245,4.0,7.0,41,-99.99,,,-99.99,,2013-01-15 01:12:00,
2013-01-14 18:22:00,5.0,-12.0,-100.00,WSW,245,6.0,7.0,43,-99.99,,,-99.99,,2013-01-15 01:22:00,
2013-01-14 18:32:00,5.0,-12.0,-100.00,SW,235,5.0,7.0,45,-99.99,,,-99.99,,2013-01-15 01:32:00,
2013-01-14 18:42:00,5.0,-11.0,-100.00,West,265,4.0,6.0,47,-99.99,,,-99.99,,2013-01-15 01:42:00,
2013-01-14 18:52:00,6.0,-10.0,-100.00,West,260,2.0,7.0,48,-99.99,,,-99.99,,2013-01-15 01:52:00,
2013-01-14 19:02:00,6.0,-9.0,-100.00,NNE,15,0.0,3.0,49,-99.99,,,-99.99,,2013-01-15 02:02:00,
2013-01-14 19:11:00,5.0,-10.0,-100.00,WSW,245,2.0,3.0,49,-99.99,,,-99.99,,2013-01-15 02:11:00,
2013-01-14 19:22:00,3.0,-11.0,-100.00,ESE,105,3.0,4.0,50,-99.99,,,-99.99,,2013-01-15 02:22:00,
2013-01-14 19:32:00,1.0,-13.0,-100.00,ESE,105,2.0,4.0,51,-99.99,,,-99.99,,2013-01-15 02:32:00,
2013-01-14 19:42:00,1.0,-12.0,-100.00,East,100,3.0,5.0,52,-99.99,,,-99.99,,2013-01-15 02:42:00,
2013-01-14 19:52:00,0.0,-12.0,-100.00,SE,140,6.0,7.0,53,-99.99,,,-99.99,,2013-01-15 02:52:00,
2013-01-14 20:02:00,1.0,-11.0,-100.00,ESE,120,4.0,10.0,55,-99.99,,,-99.99,,2013-01-15 03:02:00,
2013-01-14 20:12:00,1.0,-11.0,-100.00,ESE,105,3.0,4.0,56,-99.99,,,-99.99,,2013-01-15 03:12:00,
2013-01-14 20:22:00,0.0,-11.0,-100.00,ESE,115,4.0,4.0,58,-99.99,,,-99.99,,2013-01-15 03:22:00,
2013-01-14 20:32:00,0.0,-10.0,-100.00,SE,145,3.0,5.0,60,-99.99,,,-99.99,,2013-01-15 03:32:00,
2013-01-14 20:42:00,-1.0,-11.0,-100.00,East,90,4.0,5.0,61,-99.99,,,-99.99,,2013-01-15 03:42:00,
2013-01-14 20:52:00,-1.0,-11.0,-100.00,ENE,75,2.0,3.0,61,-99.99,,,-99.99,,2013-01-15 03:52:00,
2013-01-14 21:02:00,-2.0,-12.0,-100.00,East,80,2.0,3.0,62,-99.99,,,-99.99,,2013-01-15 04:02:00,
2013-01-14 21:12:00,-3.0,-12.0,-100.00,NE,50,1.0,3.0,63,-99.99,,,-99.99,,2013-01-15 04:12:00,
2013-01-14 21:22:00,-3.0,-13.0,-100.00,WSW,255,1.0,2.0,63,-99.99,,,-99.99,,2013-01-15 04:22:00,
2013-01-14 21:32:00,-4.0,-13.0,-100.00,NE,50,1.0,3.0,64,-99.99,,,-99.99,,2013-01-15 04:32:00,
2013-01-14 21:42:00,-4.0,-13.0,-100.00,NNE,30,0.0,2.0,64,-99.99,,,-99.99,,2013-01-15 04:42:00,
2013-01-14 21:52:00,-4.0,-13.0,-100.00,SE,140,3.0,4.0,65,-99.99,,,-99.99,,2013-01-15 04:52:00,
2013-01-14 22:03:00,-5.0,-14.0,-100.00,SE,135,1.0,4.0,66,-99.99,,,-99.99,,2013-01-15 05:03:00,
2013-01-14 22:12:00,-5.0,-13.0,-100.00,ESE,120,1.0,2.0,67,-99.99,,,-99.99,,2013-01-15 05:12:00,
2013-01-14 22:22:00,-5.0,-12.0,-100.00,East,90,1.0,3.0,68,-99.99,,,-99.99,,2013-01-15 05:22:00,
2013-01-14 22:32:00,-5.0,-13.0,-100.00,East,90,3.0,3.0,69,-99.99,,,-99.99,,2013-01-15 05:32:00,
2013-01-14 22:42:00,-5.0,-13.0,-100.00,East,90,2.0,2.0,70,-99.99,,,-99.99,,2013-01-15 05:42:00,
2013-01-14 22:52:00,-6.0,-13.0,-100.00,East,90,2.0,3.0,70,-99.99,,,-99.99,,2013-01-15 05:52:00,
2013-01-14 23:02:00,-5.0,-12.0,-100.00,ENE,75,2.0,3.0,71,-99.99,,,-99.99,,2013-01-15 06:02:00,
2013-01-14 23:12:00,-6.0,-13.0,-100.00,East,95,1.0,2.0,71,-99.99,,,-99.99,,2013-01-15 06:12:00,
2013-01-14 23:22:00,-6.0,-13.0,-100.00,East,100,1.0,2.0,72,-99.99,,,-99.99,,2013-01-15 06:22:00,
2013-01-14 23:32:00,-7.0,-13.0,-100.00,East,100,2.0,2.0,73,-99.99,,,-99.99,,2013-01-15 06:32:00,
2013-01-14 23:42:00,-7.0,-14.0,-100.00,East,100,1.0,2.0,73,-99.99,,,-99.99,,2013-01-15 06:42:00,
2013-01-14 23:52:00,-7.0,-13.0,-100.00,East,80,2.0,3.0,74,-99.99,,,-99.99,,2013-01-15 06:52:00,